Location: Cazavet
(43.0017°N, 1.0431°E)
Time: 22:48:16
(UTC+00:00)

SL-23 DEB - Pass Details

Date: 18 January 2026
Orbit: 423 x 3435 km, 51.4° (Epoch: 13 February)

Event Time Altitude Azimuth Distance (km) Brightness Sun altitude
Exits shadow 05:57:44 26° 327° (NNW) 886 4.5 -15.3°
Maximum altitude 05:58:12 27° 343° (NNW) 859 4.5 -15.2°
Drops below altitude 10° 06:01:02 10° 44° (NE) 1,564 6.5 -14.7°
Sets 06:03:29 0° 58° (ENE) 2,582 7.9 -14.3°
